Weather History for KOWP - February, 2014

Change the Weather History Date:

Sunday, February 16, 2014

  Actual Average (KTUL) Record (KTUL)
Temperature  
Mean Temperature 54 °F 42 °F  
Max Temperature 66 °F 53 °F 78 °F (1976)
Min Temperature 43 °F 32 °F 3 °F (1920)
Degree Days  
Heating Degree Days 10 23  
Month to date heating degree days 391  
Since 1 July heating degree days 2664  
Growing Degree Days 4 (Base 50)    
Moisture  
Dew Point 31 °F    
Average Humidity 42    
Maximum Humidity 65    
Minimum Humidity 20    
Precipitation  
Precipitation 0.00 in 0.06 in 1.14 in (2008)
Month to date precipitation 0.95  
Year to date precipitation 2.61  
Sea Level Pressure  
Sea Level Pressure 30.00 in    
Wind  
Wind Speed 0 mph (SE)    
Max Wind Speed 5 mph    
Max Gust Speed -    
Visibility 10 miles    
Events      
T = Trace of Precipitation, MM = Missing Value Source: NWS Daily Summary

Daily Weather History Graph

Daily Weather History Graph

Search for Another Location

Airport or City:

Trip Planner

Search our weather history database for the weather conditions in past years. The results will help you decide how hot, cold, wet, or windy it might be!

Date:

Astronomy

Feb. 16, 2014 Rise Set
Actual Time 7:10 AM CST 6:06 PM CST
Civil Twilight 6:44 AM CST 6:33 PM CST
Nautical Twilight 6:14 AM CST 7:03 PM CST
Astronomical Twilight 5:44 AM CST 7:33 PM CST
Moon 7:59 PM CST (2/16) 7:45 AM CST (2/16)
Length of Visible Light 11h 48m
Length of Day
10h 55m
Full, 97% of the Moon is Illuminated
Feb 16
Full
Feb 22
Last Quarter
Mar 1
New
Mar 8
First Quarter
Mar 16
Full

Hourly Weather History & Observations

Time (CST) Temp. Dew Point Humidity Pressure Visibility Wind Dir Wind Speed Gust Speed Precip Events Conditions
12:15 AM 51.6 °F 32.0 °F 47% 30.08 in 10.0 mi Calm Calm - N/A   Clear
12:35 AM 52.0 °F 32.0 °F 47% 30.08 in 10.0 mi Calm Calm - N/A   Clear
12:55 AM 51.8 °F 32.0 °F 47% 30.09 in 10.0 mi Calm Calm - N/A   Clear
1:15 AM 51.8 °F 32.0 °F 47% 30.09 in 10.0 mi Calm Calm - N/A   Clear
1:35 AM 51.4 °F 32.0 °F 47% 30.09 in 10.0 mi Calm Calm - N/A   Clear
1:55 AM 47.8 °F 32.0 °F 54% 30.09 in 10.0 mi Calm Calm - N/A   Clear
2:15 AM 46.0 °F 32.0 °F 58% 30.10 in 10.0 mi Calm Calm - N/A   Clear
2:40 AM 46.2 °F 32.0 °F 58% 30.10 in 10.0 mi Calm Calm - N/A   Clear
2:55 AM 46.6 °F 32.0 °F 57% 30.10 in 10.0 mi Calm Calm - N/A   Clear
3:15 AM 45.9 °F 32.0 °F 58% 30.10 in 10.0 mi Calm Calm - N/A   Clear
3:35 AM 46.6 °F 32.0 °F 57% 30.09 in 10.0 mi Calm Calm - N/A   Clear
3:55 AM 46.8 °F 32.0 °F 57% 30.08 in 10.0 mi Calm Calm - N/A   Clear
4:15 AM 45.1 °F 32.0 °F 60% 30.09 in 10.0 mi Calm Calm - N/A   Clear
4:35 AM 43.0 °F 32.0 °F 65% 30.09 in 10.0 mi Calm Calm - N/A   Clear
4:55 AM 44.8 °F 32.5 °F 62% 30.09 in 10.0 mi Calm Calm - N/A   Clear
5:15 AM 44.1 °F 32.2 °F 63% 30.09 in 10.0 mi Calm Calm - N/A   Clear
5:35 AM 44.2 °F 32.0 °F 62% 30.09 in 10.0 mi Calm Calm - N/A   Clear
5:55 AM 43.7 °F 32.0 °F 63% 30.09 in 10.0 mi Calm Calm - N/A   Clear
6:15 AM 43.3 °F 32.0 °F 64% 30.09 in 10.0 mi Calm Calm - N/A   Clear
6:35 AM 44.6 °F 32.0 °F 61% 30.09 in 10.0 mi Calm Calm - N/A   Clear
6:55 AM 44.1 °F 32.0 °F 63% 30.09 in 10.0 mi Calm Calm - N/A   Clear
7:15 AM 43.3 °F 32.0 °F 64% 30.09 in 10.0 mi Calm Calm - N/A   Clear
7:35 AM 43.3 °F 32.0 °F 64% 30.09 in 10.0 mi Calm Calm - N/A   Clear
7:55 AM 43.9 °F 32.0 °F 63% 30.09 in 10.0 mi Calm Calm - N/A   Clear
8:20 AM 46.0 °F 32.0 °F 58% 30.10 in 10.0 mi Calm Calm - N/A   Clear
8:35 AM 47.3 °F 32.0 °F 55% 30.10 in 10.0 mi Calm Calm - N/A   Clear
8:55 AM 50.0 °F 32.0 °F 50% 30.09 in 10.0 mi Calm Calm - N/A   Clear
9:15 AM 51.6 °F 30.9 °F 45% 30.09 in 10.0 mi Calm Calm - N/A   Clear
9:35 AM 50.9 °F 30.0 °F 45% 30.10 in 10.0 mi Calm Calm - N/A   Clear
9:55 AM 52.7 °F 28.9 °F 40% 30.11 in 10.0 mi Calm Calm - N/A   Clear
10:15 AM 54.5 °F 28.0 °F 36% 30.11 in 10.0 mi Calm Calm - N/A   Clear
10:35 AM 56.7 °F 28.2 °F 34% 30.11 in 10.0 mi Calm Calm - N/A   Clear
10:55 AM 56.7 °F 27.7 °F 33% 30.11 in 10.0 mi Calm Calm - N/A   Clear
11:15 AM 58.8 °F 27.7 °F 31% 30.11 in 10.0 mi Calm Calm - N/A   Clear
11:35 AM 58.6 °F 26.2 °F 29% 30.10 in 10.0 mi Calm Calm - N/A   Clear
11:55 AM 59.4 °F 25.9 °F 28% 30.09 in 10.0 mi Calm Calm - N/A   Clear
12:15 PM 61.0 °F 25.2 °F 25% 30.08 in 10.0 mi Calm Calm - N/A   Clear
12:35 PM 62.2 °F 24.4 °F 24% 30.06 in 10.0 mi Calm Calm - N/A   Clear
12:55 PM 62.6 °F 22.6 °F 22% 30.05 in 10.0 mi Calm Calm - N/A   Clear
1:15 PM 63.5 °F 23.2 °F 21% 30.03 in 10.0 mi Calm Calm - N/A   Clear
1:35 PM 63.7 °F 24.1 °F 22% 30.02 in 10.0 mi Calm Calm - N/A   Clear
1:55 PM 64.0 °F 24.3 °F 22% 30.00 in 10.0 mi Calm Calm - N/A   Clear
2:15 PM 64.6 °F 24.4 °F 22% 29.99 in 10.0 mi Calm Calm - N/A   Clear
2:35 PM 64.9 °F 23.0 °F 20% 29.98 in 10.0 mi Calm Calm - N/A   Clear
2:55 PM 64.8 °F 23.5 °F 21% 29.97 in 10.0 mi Calm Calm - N/A   Clear
3:15 PM 65.8 °F 23.9 °F 20% 29.96 in 10.0 mi Calm Calm - N/A   Clear
3:35 PM 66.2 °F 24.3 °F 20% 29.95 in 10.0 mi Calm Calm - N/A   Clear
3:55 PM 66.9 °F 24.6 °F 20% 29.94 in 10.0 mi Calm Calm - N/A   Clear
4:20 PM 66.2 °F 25.5 °F 22% 29.92 in 10.0 mi Calm Calm - N/A   Clear
4:35 PM 66.2 °F 25.7 °F 22% 29.91 in 10.0 mi ESE 3.5 mph - N/A   Clear
4:55 PM 65.8 °F 26.6 °F 23% 29.91 in 10.0 mi Calm Calm - N/A   Clear
5:15 PM 65.3 °F 27.9 °F 24% 29.90 in 10.0 mi Calm Calm - N/A   Clear
5:35 PM 65.3 °F 29.8 °F 26% 29.90 in 10.0 mi Calm Calm - N/A   Clear
5:55 PM 63.9 °F 29.8 °F 28% 29.89 in 10.0 mi Calm Calm - N/A   Clear
6:15 PM 63.1 °F 30.0 °F 29% 29.89 in 10.0 mi Calm Calm - N/A   Clear
6:35 PM 62.8 °F 30.0 °F 29% 29.89 in 10.0 mi Calm Calm - N/A   Clear
6:55 PM 62.1 °F 30.0 °F 30% 29.89 in 10.0 mi Calm Calm - N/A   Clear
7:15 PM 61.7 °F 30.2 °F 30% 29.89 in 10.0 mi Calm Calm - N/A   Clear
7:35 PM 61.0 °F 30.2 °F 31% 29.88 in 10.0 mi Calm Calm - N/A   Clear
7:55 PM 61.0 °F 30.6 °F 32% 29.88 in 10.0 mi Calm Calm - N/A   Scattered Clouds
8:15 PM 61.0 °F 30.9 °F 32% 29.88 in 10.0 mi Calm Calm - N/A   Mostly Cloudy
8:35 PM 60.8 °F 31.6 °F 33% 29.87 in 10.0 mi Calm Calm - N/A   Overcast
8:55 PM 60.8 °F 32.7 °F 35% 29.87 in 10.0 mi Calm Calm - N/A   Overcast
9:15 PM 60.8 °F 35.8 °F 39% 29.84 in 10.0 mi Calm Calm - N/A   Mostly Cloudy
9:35 PM 60.1 °F 39.2 °F 46% 29.84 in 10.0 mi Calm Calm - N/A   Scattered Clouds
9:55 PM 59.9 °F 39.7 °F 47% 29.84 in 10.0 mi Calm Calm - N/A   Clear
10:15 PM 60.3 °F 41.5 °F 50% 29.84 in 10.0 mi Calm Calm - N/A   Mostly Cloudy
10:35 PM 60.8 °F 43.5 °F 53% 29.84 in 10.0 mi Calm Calm - N/A   Overcast
10:55 PM 61.3 °F 45.7 °F 56% 29.84 in 10.0 mi Calm Calm - N/A   Overcast
11:15 PM 61.7 °F 47.1 °F 59% 29.83 in 10.0 mi Calm Calm - N/A   Overcast
11:35 PM 61.5 °F 47.8 °F 61% 29.82 in 10.0 mi Calm Calm - N/A   Overcast
11:55 PM 61.2 °F 48.4 °F 63% 29.81 in 10.0 mi SSE 4.6 mph - N/A   Mostly Cloudy